| time (UTC) | temp F | wind direction | speed knots | gust knots | rain 1hr in | rain 24hr in | rain mn in | humidity % | barometer mb |
| 20260510195856 | 53 | 211 | 4.3 | 7.8 | 0.00 | 0.45 | 0.01 | 48 | 1015.6 |
| 20260510195404 | 53 | 292 | 2.6 | 6.1 | 0.00 | 0.45 | 0.01 | 50 | 1015.6 |
| 20260510194838 | 52 | 324 | 3.5 | 8.7 | 0.00 | 0.45 | 0.01 | 49 | 1015.7 |
| 20260510194406 | 53 | 213 | 2.6 | 9.6 | 0.00 | 0.45 | 0.01 | 49 | 1015.8 |
| 20260510193841 | 53 | 268 | 3.5 | 9.6 | 0.00 | 0.45 | 0.01 | 46 | 1015.5 |
| 20260510193401 | 53 | 120 | 2.6 | 5.2 | 0.00 | 0.45 | 0.01 | 52 | 1015.3 |
| 20260510192835 | 53 | 13 | 2.6 | 7.8 | 0.00 | 0.45 | 0.01 | 47 | 1015.5 |
| 20260510192341 | 53 | 244 | 5.2 | 8.7 | 0.00 | 0.45 | 0.01 | 50 | 1015.4 |
| 20260510191839 | 53 | 323 | 2.6 | 8.7 | 0.00 | 0.45 | 0.01 | 50 | 1015.3 |
| 20260510191358 | 53 | 265 | 2.6 | 7.8 | 0.00 | 0.45 | 0.01 | 49 | 1015.3 |
| 20260510190835 | 53 | 261 | 1.7 | 8.7 | 0.00 | 0.45 | 0.01 | 51 | 1015.5 |
| 20260510190355 | 53 | 261 | 2.6 | 7.8 | 0.00 | 0.45 | 0.01 | 49 | 1015.4 |
| 20260510185846 | 54 | 232 | 1.7 | 6.1 | 0.00 | 0.45 | 0.01 | 48 | 1015.4 |
| 20260510185350 | 54 | 207 | 2.6 | 6.1 | 0.00 | 0.45 | 0.01 | 57 | 1015.4 |
| 20260510184853 | 53 | 289 | 3.5 | 9.6 | 0.00 | 0.45 | 0.01 | 51 | 1015.2 |
| 20260510184352 | 53 | 271 | 4.3 | 9.6 | 0.00 | 0.45 | 0.01 | 52 | 1015.3 |
| 20260510183838 | 53 | 157 | 2.6 | 7.8 | 0.00 | 0.45 | 0.01 | 49 | 1015.2 |
| 20260510183339 | 53 | 189 | 1.7 | 7.8 | 0.00 | 0.45 | 0.01 | 57 | 1015.1 |
| 20260510182905 | 53 | 331 | 2.6 | 7.8 | 0.00 | 0.45 | 0.01 | 49 | 1015.0 |
| 20260510182349 | 53 | 350 | 3.5 | 7.0 | 0.00 | 0.45 | 0.01 | 47 | 1014.9 |
| 20260510181909 | 53 | 355 | 3.5 | 7.0 | 0.00 | 0.45 | 0.01 | 50 | 1015.0 |
| 20260510181408 | 53 | 9 | 2.6 | 6.1 | 0.00 | 0.45 | 0.01 | 49 | 1014.9 |
| 20260510180900 | 53 | 184 | 1.7 | 6.1 | 0.00 | 0.45 | 0.01 | 52 | 1014.9 |
| 20260510180344 | 53 | 241 | 2.6 | 10.4 | 0.00 | 0.45 | 0.01 | 52 | 1014.9 |
| 20260510175841 | 53 | 234 | 4.3 | 7.0 | 0.00 | 0.45 | 0.01 | 53 | 1014.9 |
| 20260510175338 | 53 | 215 | 2.6 | 6.1 | 0.00 | 0.45 | 0.01 | 53 | 1015.0 |
| 20260510174850 | 54 | 259 | 1.7 | 5.2 | 0.00 | 0.45 | 0.01 | 54 | 1014.9 |
| 20260510174348 | 53 | 211 | 1.7 | 7.0 | 0.00 | 0.45 | 0.01 | 57 | 1014.8 |
| 20260510173840 | 53 | 289 | 2.6 | 7.0 | 0.00 | 0.45 | 0.01 | 58 | 1014.8 |
| 20260510173337 | 54 | 271 | 2.6 | 7.8 | 0.00 | 0.45 | 0.01 | 57 | 1014.8 |
| 20260510172841 | 53 | 182 | 1.7 | 7.8 | 0.00 | 0.45 | 0.01 | 55 | 1014.7 |
| 20260510172350 | 52 | 326 | 5.2 | 7.8 | 0.00 | 0.45 | 0.01 | 55 | 1014.7 |
| 20260510171847 | 52 | 245 | 2.6 | 7.8 | 0.00 | 0.45 | 0.01 | 56 | 1014.6 |
| 20260510171350 | 52 | 337 | 2.6 | 7.8 | 0.00 | 0.45 | 0.01 | 58 | 1014.6 |
| 20260510170912 | 51 | 38 | 1.7 | 5.2 | 0.00 | 0.45 | 0.01 | 54 | 1014.6 |
| 20260510170352 | 52 | 88 | 1.7 | 7.0 | 0.00 | 0.45 | 0.01 | 58 | 1014.6 |
| 20260510165849 | 52 | 355 | 2.6 | 7.8 | 0.00 | 0.45 | 0.01 | 53 | 1014.5 |
| 20260510165353 | 51 | 255 | 5.2 | 7.8 | 0.00 | 0.45 | 0.01 | 53 | 1014.4 |
| 20260510164847 | 51 | 236 | 3.5 | 7.8 | 0.00 | 0.45 | 0.01 | 55 | 1014.5 |
| 20260510164349 | 51 | 188 | 2.6 | 7.8 | 0.00 | 0.45 | 0.01 | 55 | 1014.4 |
| 20260510163909 | 51 | 340 | 2.6 | 7.8 | 0.00 | 0.45 | 0.01 | 54 | 1014.5 |
| 20260510163348 | 51 | 256 | 1.7 | 8.7 | 0.00 | 0.45 | 0.01 | 55 | 1014.4 |
| 20260510162852 | 52 | 360 | 4.3 | 8.7 | 0.00 | 0.45 | 0.01 | 60 | 1014.4 |
| 20260510162358 | 51 | 306 | 2.6 | 7.0 | 0.01 | 0.45 | 0.01 | 56 | 1014.5 |
| 20260510161838 | 51 | 349 | 2.6 | 8.7 | 0.01 | 0.45 | 0.01 | 56 | 1014.4 |
| 20260510161333 | 51 | 38 | 3.5 | 6.1 | 0.01 | 0.45 | 0.01 | 53 | 1014.3 |
| 20260510160850 | 51 | 82 | 1.7 | 9.6 | 0.01 | 0.45 | 0.01 | 53 | 1014.4 |
| 20260510160337 | 51 | 254 | 4.3 | 9.6 | 0.01 | 0.45 | 0.01 | 52 | 1014.4 |
| 20260510155841 | 52 | 348 | 1.7 | 7.8 | 0.01 | 0.45 | 0.01 | 55 | 1014.4 |
| 20260510155341 | 51 | 205 | 2.6 | 7.8 | 0.01 | 0.45 | 0.01 | 57 | 1014.3 |
| 20260510154853 | 50 | 250 | 3.5 | 7.8 | 0.01 | 0.45 | 0.01 | 57 | 1014.3 |
| 20260510154338 | 51 | 164 | 2.6 | 6.1 | 0.01 | 0.45 | 0.01 | 53 | 1014.3 |
| 20260510153904 | 52 | 71 | 1.7 | 6.1 | 0.01 | 0.45 | 0.01 | 59 | 1014.2 |
| 20260510153352 | 52 | 217 | 2.6 | 4.3 | 0.01 | 0.45 | 0.01 | 60 | 1014.3 |
| 20260510152910 | 50 | 318 | 1.7 | 7.8 | 0.01 | 0.45 | 0.01 | 58 | 1014.3 |
| 20260510152351 | 49 | 234 | 2.6 | 7.8 | 0.00 | 0.44 | 0.00 | 56 | 1014.3 |
| 20260510151907 | 49 | 222 | 3.5 | 7.0 | 0.00 | 0.44 | 0.00 | 55 | 1014.1 |
| 20260510151403 | 50 | 196 | 3.5 | 7.0 | 0.00 | 0.44 | 0.00 | 56 | 1014.1 |
| 20260510150840 | 50 | 286 | 1.7 | 7.8 | 0.00 | 0.44 | 0.00 | 64 | 1014.1 |
| 20260510150408 | 49 | 22 | 3.5 | 7.8 | 0.00 | 0.44 | 0.00 | 62 | 1014.1 |
| 20260510145859 | 49 | 59 | 2.6 | 10.4 | 0.00 | 0.44 | 0.00 | 61 | 1013.9 |
| 20260510145416 | 49 | 220 | 4.3 | 10.4 | 0.00 | 0.44 | 0.00 | 62 | 1013.8 |
| 20260510144845 | 49 | 240 | 1.7 | 7.0 | 0.00 | 0.44 | 0.00 | 60 | 1013.8 |
| 20260510144339 | 49 | 276 | 2.6 | 7.0 | 0.00 | 0.44 | 0.00 | 64 | 1013.6 |
| 20260510143854 | 49 | 169 | 2.6 | 5.2 | 0.00 | 0.44 | 0.00 | 59 | 1013.6 |
| 20260510143351 | 49 | 150 | 0.9 | 5.2 | 0.00 | 0.44 | 0.00 | 67 | 1013.4 |
| 20260510142851 | 50 | 285 | 2.6 | 6.1 | 0.00 | 0.44 | 0.00 | 64 | 1013.4 |
| 20260510142349 | 49 | 350 | 2.6 | 7.0 | 0.00 | 0.44 | 0.00 | 63 | 1013.3 |
| 20260510141847 | 49 | 236 | 1.7 | 7.0 | 0.00 | 0.44 | 0.00 | 60 | 1013.2 |
| 20260510141338 | 49 | 310 | 1.7 | 7.0 | 0.00 | 0.44 | 0.00 | 62 | 1013.3 |
| 20260510140838 | 49 | 202 | 1.7 | 6.1 | 0.00 | 0.44 | 0.00 | 68 | 1013.2 |
| 20260510140334 | 49 | 185 | 2.6 | 5.2 | 0.00 | 0.44 | 0.00 | 71 | 1013.1 |
| 20260510135913 | 49 | 332 | 1.7 | 5.2 | 0.00 | 0.44 | 0.00 | 66 | 1013.1 |
| 20260510135343 | 48 | 243 | 1.7 | 6.1 | 0.00 | 0.44 | 0.00 | 62 | 1013.0 |
| 20260510134836 | 48 | 254 | 2.6 | 6.1 | 0.00 | 0.44 | 0.00 | 65 | 1012.9 |
| 20260510134339 | 48 | 313 | 1.7 | 3.5 | 0.00 | 0.44 | 0.00 | 66 | 1012.9 |
| 20260510133853 | 48 | 204 | 1.7 | 4.3 | 0.00 | 0.44 | 0.00 | 63 | 1012.7 |
| 20260510133354 | 48 | 178 | 1.7 | 6.1 | 0.00 | 0.44 | 0.00 | 62 | 1012.7 |
| 20260510132840 | 48 | 243 | 1.7 | 6.1 | 0.00 | 0.44 | 0.00 | 63 | 1012.7 |
| 20260510132358 | 48 | 288 | 1.7 | 7.0 | 0.00 | 0.44 | 0.00 | 64 | 1012.7 |
| 20260510131839 | 48 | 263 | 1.7 | 7.0 | 0.00 | 0.44 | 0.00 | 66 | 1012.7 |
| 20260510131356 | 48 | 182 | 1.7 | 6.1 | 0.00 | 0.44 | 0.00 | 75 | 1012.6 |
| 20260510130845 | 48 | 43 | 1.7 | 8.7 | 0.00 | 0.44 | 0.00 | 75 | 1012.5 |
| 20260510130332 | 48 | 238 | 3.5 | 8.7 | 0.00 | 0.44 | 0.00 | 71 | 1012.4 |
| 20260510125837 | 49 | 276 | 2.6 | 7.0 | 0.00 | 0.44 | 0.00 | 71 | 1012.3 |
| 20260510125352 | 48 | 49 | 0.9 | 3.5 | 0.00 | 0.44 | 0.00 | 75 | 1012.3 |
| 20260510124906 | 48 | 292 | 1.7 | 4.3 | 0.00 | 0.44 | 0.00 | 76 | 1012.2 |
| 20260510124359 | 47 | 277 | 0.9 | 4.3 | 0.00 | 0.44 | 0.00 | 78 | 1012.1 |
| 20260510123911 | 46 | 217 | 1.7 | 4.3 | 0.00 | 0.44 | 0.00 | 80 | 1012.1 |
| 20260510123346 | 45 | 40 | 0.9 | 2.6 | 0.00 | 0.44 | 0.00 | 80 | 1012.0 |
| 20260510122842 | 45 | 229 | 0.9 | 2.6 | 0.00 | 0.44 | 0.00 | 79 | 1011.9 |
| 20260510122340 | 44 | 229 | 0.0 | 2.6 | 0.00 | 0.44 | 0.00 | 80 | 1012.0 |
| 20260510121834 | 44 | 294 | 0.0 | 1.7 | 0.00 | 0.44 | 0.00 | 81 | 1012.0 |
| 20260510121350 | 44 | 294 | 0.0 | 1.7 | 0.00 | 0.44 | 0.00 | 79 | 1012.0 |
| 20260510120902 | 44 | 294 | 0.0 | 0.9 | 0.00 | 0.44 | 0.00 | 79 | 1012.0 |
| 20260510120337 | 44 | 294 | 0.0 | 1.7 | 0.00 | 0.44 | 0.00 | 80 | 1011.9 |
| 20260510115845 | 44 | 294 | 0.0 | 1.7 | 0.00 | 0.44 | 0.00 | 80 | 1011.8 |
| 20260510115339 | 44 | 236 | 0.0 | 2.6 | 0.00 | 0.44 | 0.00 | 79 | 1011.9 |
| 20260510114833 | 44 | 254 | 0.0 | 2.6 | 0.00 | 0.44 | 0.00 | 80 | 1011.9 |
| 20260510114347 | 43 | 254 | 0.0 | 0.9 | 0.00 | 0.44 | 0.00 | 80 | 1011.8 |
| 20260510113842 | 44 | 254 | 0.0 | 0.9 | 0.00 | 0.44 | 0.00 | 81 | 1011.8 |
| 20260510113335 | 44 | 254 | 0.0 | 0.9 | 0.00 | 0.44 | 0.00 | 82 | 1011.7 |
| 20260510112850 | 44 | 254 | 0.0 | 0.9 | 0.00 | 0.44 | 0.00 | 83 | 1011.8 |
| 20260510112343 | 43 | 254 | 0.0 | 1.7 | 0.00 | 0.44 | 0.00 | 81 | 1011.5 |
| 20260510111839 | 44 | 254 | 0.0 | 1.7 | 0.00 | 0.44 | 0.00 | 83 | 1011.3 |
| 20260510111333 | 44 | 285 | 0.0 | 1.7 | 0.00 | 0.44 | 0.00 | 83 | 1011.3 |
| 20260510110848 | 43 | 285 | 0.0 | 1.7 | 0.00 | 0.44 | 0.00 | 85 | 1011.3 |
| 20260510110343 | 42 | 285 | 0.0 | 0.9 | 0.00 | 0.44 | 0.00 | 87 | 1011.2 |
| 20260510105850 | 42 | 317 | 0.0 | 0.9 | 0.00 | 0.44 | 0.00 | 88 | 1011.0 |
| 20260510105344 | 42 | 317 | 0.0 | 1.7 | 0.00 | 0.44 | 0.00 | 88 | 1010.9 |
| 20260510104838 | 42 | 317 | 0.0 | 1.7 | 0.00 | 0.44 | 0.00 | 89 | 1010.7 |
| 20260510104352 | 42 | 317 | 0.0 | 2.6 | 0.00 | 0.44 | 0.00 | 90 | 1010.7 |
| 20260510103845 | 41 | 317 | 0.0 | 2.6 | 0.00 | 0.44 | 0.00 | 89 | 1010.3 |
| 20260510103344 | 41 | 298 | 0.0 | 0.0 | 0.00 | 0.44 | 0.00 | 88 | 1010.1 |
| 20260510102840 | 42 | 299 | 0.0 | 0.0 | 0.00 | 0.44 | 0.00 | 88 | 1010.1 |
| 20260510102333 | 42 | 298 | 0.0 | 0.0 | 0.00 | 0.44 | 0.00 | 88 | 1010.0 |
| 20260510101846 | 42 | 298 | 0.0 | 0.0 | 0.00 | 0.44 | 0.00 | 87 | 1010.0 |
| 20260510101341 | 42 | 298 | 0.0 | 0.0 | 0.00 | 0.44 | 0.00 | 88 | 1009.7 |
| 20260510100835 | 42 | 299 | 0.0 | 1.7 | 0.00 | 0.44 | 0.00 | 89 | 1009.8 |
| 20260510100330 | 42 | 298 | 0.9 | 1.7 | 0.00 | 0.44 | 0.00 | 88 | 1009.6 |
| 20260510095838 | 42 | 299 | 0.9 | 1.7 | 0.00 | 0.44 | 0.00 | 88 | 1009.4 |
| 20260510095333 | 42 | 299 | 0.0 | 1.7 | 0.00 | 0.44 | 0.00 | 87 | 1009.4 |
| 20260510094848 | 42 | 299 | 0.0 | 1.7 | 0.00 | 0.44 | 0.00 | 86 | 1009.2 |
| 20260510094343 | 42 | 299 | 0.0 | 0.9 | 0.00 | 0.44 | 0.00 | 87 | 1009.2 |
| 20260510093858 | 42 | 299 | 0.0 | 2.6 | 0.00 | 0.44 | 0.00 | 88 | 1009.4 |
| 20260510093352 | 43 | 299 | 0.0 | 2.6 | 0.00 | 0.44 | 0.00 | 88 | 1009.2 |
| 20260510092846 | 43 | 290 | 0.9 | 1.7 | 0.00 | 0.44 | 0.00 | 88 | 1009.3 |
| 20260510092342 | 43 | 288 | 0.9 | 1.7 | 0.00 | 0.44 | 0.00 | 88 | 1009.0 |
| 20260510091836 | 44 | 333 | 0.0 | 4.3 | 0.00 | 0.44 | 0.00 | 87 | 1008.7 |
| 20260510091351 | 44 | 329 | 1.7 | 4.3 | 0.00 | 0.44 | 0.00 | 89 | 1008.8 |
| 20260510090845 | 44 | 331 | 0.9 | 3.5 | 0.00 | 0.44 | 0.00 | 91 | 1009.4 |
| 20260510090340 | 45 | 320 | 0.9 | 3.5 | 0.00 | 0.44 | 0.00 | 92 | 1009.3 |
| 20260510085833 | 45 | 355 | 0.0 | 2.6 | 0.00 | 0.44 | 0.00 | 92 | 1008.9 |
| 20260510085348 | 45 | 355 | 0.9 | 2.6 | 0.00 | 0.44 | 0.00 | 91 | 1008.7 |
| 20260510084843 | 45 | 355 | 0.0 | 2.6 | 0.00 | 0.44 | 0.00 | 91 | 1008.5 |
| 20260510084337 | 45 | 355 | 0.9 | 5.2 | 0.00 | 0.44 | 0.00 | 91 | 1008.6 |
| 20260510083852 | 45 | 5 | 0.9 | 7.0 | 0.00 | 0.44 | 0.00 | 92 | 1008.6 |
| 20260510080340 | 47 | 302 | 0.0 | 3.5 | 0.00 | 0.44 | 0.00 | 96 | 1008.0 |
| 20260510075907 | 47 | 299 | 0.9 | 3.5 | 0.00 | 0.44 | 0.00 | 96 | 1008.0 |
| 20260510075349 | 47 | 292 | 0.0 | 4.3 | 0.00 | 0.44 | 0.00 | 96 | 1008.1 |
| 20260510074838 | 47 | 330 | 0.9 | 4.3 | 0.00 | 0.44 | 0.00 | 96 | 1008.0 |
| 20260510074334 | 47 | 273 | 0.0 | 3.5 | 0.00 | 0.44 | 0.00 | 96 | 1008.1 |
| 20260510073847 | 47 | 294 | 0.0 | 3.5 | 0.00 | 0.44 | 0.00 | 96 | 1008.1 |
| 20260510073334 | 47 | 355 | 0.0 | 1.7 | 0.00 | 0.44 | 0.00 | 96 | 1008.0 |
| 20260510072839 | 47 | 355 | 0.0 | 4.3 | 0.00 | 0.44 | 0.00 | 96 | 1007.9 |
| 20260510072347 | 47 | 294 | 2.6 | 4.3 | 0.00 | 0.44 | 0.00 | 96 | 1007.9 |
| 20260510071853 | 47 | 46 | 0.9 | 3.5 | 0.00 | 0.44 | 0.00 | 96 | 1007.7 |
| 20260510071347 | 48 | 220 | 0.0 | 4.3 | 0.00 | 0.44 | 0.00 | 96 | 1007.7 |
| 20260510070907 | 48 | 350 | 0.9 | 7.0 | 0.00 | 0.44 | 0.00 | 96 | 1007.8 |
| 20260510070409 | 48 | 325 | 2.6 | 7.0 | 0.00 | 0.44 | 0.00 | 96 | 1007.6 |
| 20260510065831 | 48 | 21 | 0.0 | 4.3 | 0.00 | 0.44 | 0.00 | 96 | 1007.8 |
| 20260510065357 | 48 | 300 | 0.0 | 4.3 | 0.00 | 0.44 | 0.00 | 96 | 1007.4 |
| 20260510064859 | 48 | 118 | 0.0 | 3.5 | 0.00 | 0.44 | 0.00 | 96 | 1007.1 |
| 20260510064335 | 48 | 300 | 0.9 | 4.3 | 0.00 | 0.44 | 0.00 | 96 | 1007.3 |
| 20260510063832 | 49 | 246 | 1.7 | 4.3 | 0.00 | 0.44 | 0.00 | 96 | 1007.3 |
| 20260510063356 | 49 | 302 | 0.9 | 6.1 | 0.00 | 0.44 | 0.00 | 96 | 1007.0 |
| 20260510062835 | 49 | 308 | 0.9 | 6.1 | 0.00 | 0.44 | 0.00 | 96 | 1007.0 |
| 20260510062335 | 49 | 342 | 0.0 | 2.6 | 0.00 | 0.44 | 0.00 | 96 | 1007.0 |
| 20260510061857 | 49 | 55 | 0.0 | 3.5 | 0.00 | 0.44 | 0.00 | 96 | 1007.1 |
| 20260510061355 | 49 | 54 | 0.0 | 6.1 | 0.00 | 0.44 | 0.00 | 96 | 1007.0 |
| 20260510060837 | 50 | 217 | 0.9 | 4.3 | 0.00 | 0.44 | 0.00 | 96 | 1007.1 |
| 20260510060344 | 50 | 202 | 0.0 | 2.6 | 0.00 | 0.44 | 0.00 | 96 | 1007.2 |
| 20260510055848 | 50 | 202 | 0.9 | 2.6 | 0.00 | 0.44 | 0.00 | 96 | 1007.1 |
| 20260510055333 | 50 | 276 | 0.0 | 2.6 | 0.00 | 0.44 | 0.00 | 96 | 1007.1 |
| 20260510054855 | 49 | 276 | 0.0 | 0.9 | 0.00 | 0.44 | 0.00 | 96 | 1007.1 |
| 20260510054332 | 49 | 276 | 0.0 | 1.7 | 0.00 | 0.44 | 0.00 | 96 | 1006.9 |
| 20260510053834 | 49 | 276 | 0.9 | 1.7 | 0.00 | 0.44 | 0.00 | 96 | 1006.7 |
| 20260510053344 | 49 | 276 | 0.0 | 1.7 | 0.00 | 0.44 | 0.00 | 96 | 1006.8 |
| 20260510052848 | 49 | 205 | 0.0 | 1.7 | 0.00 | 0.44 | 0.00 | 96 | 1007.1 |
| 20260510052342 | 49 | 198 | 0.0 | 1.7 | 0.00 | 0.44 | 0.00 | 96 | 1006.8 |
| 20260510051840 | 49 | 198 | 0.9 | 1.7 | 0.00 | 0.44 | 0.00 | 96 | 1006.5 |
| 20260510051340 | 49 | 198 | 0.0 | 1.7 | 0.00 | 0.44 | 0.00 | 96 | 1006.3 |
| 20260510050846 | 49 | 199 | 0.0 | 0.9 | 0.00 | 0.44 | 0.00 | 96 | 1006.3 |
| 20260510050353 | 49 | 198 | 0.0 | 0.9 | 0.00 | 0.44 | 0.00 | 96 | 1006.4 |
| 20260510045848 | 49 | 198 | 0.0 | 1.7 | 0.00 | 0.44 | 0.00 | 96 | 1006.3 |
| 20260510045343 | 48 | 198 | 0.0 | 2.6 | 0.00 | 0.44 | 0.00 | 96 | 1006.2 |
| 20260510044841 | 49 | 187 | 0.0 | 1.7 | 0.00 | 0.44 | 0.00 | 96 | 1006.3 |
| 20260510044348 | 48 | 187 | 0.0 | 0.9 | 0.00 | 0.44 | 0.00 | 96 | 1006.3 |
| 20260510043834 | 48 | 187 | 0.0 | 0.9 | 0.00 | 0.44 | 0.00 | 96 | 1006.4 |
| 20260510043412 | 48 | 187 | 0.0 | 0.9 | 0.00 | 0.44 | 0.00 | 96 | 1006.4 |
| 20260510042845 | 48 | 187 | 0.0 | 1.7 | 0.00 | 0.44 | 0.00 | 96 | 1006.2 |
| 20260510042336 | 48 | 187 | 0.9 | 1.7 | 0.00 | 0.44 | 0.00 | 96 | 1006.1 |
| 20260510041842 | 48 | 184 | 0.0 | 2.6 | 0.00 | 0.44 | 0.00 | 96 | 1005.9 |
| 20260510041346 | 48 | 184 | 0.9 | 2.6 | 0.00 | 0.44 | 0.00 | 96 | 1005.9 |
| 20260510040848 | 48 | 184 | 0.9 | 1.7 | 0.00 | 0.44 | 0.00 | 96 | 1005.9 |
| 20260510040356 | 48 | 184 | 0.0 | 1.7 | 0.00 | 0.44 | 0.00 | 96 | 1005.8 |
| 20260510035905 | 48 | 184 | 0.0 | 1.7 | 0.00 | 0.44 | 0.44 | 96 | 1005.9 |
| 20260510035400 | 47 | 184 | 0.0 | 1.7 | 0.00 | 0.44 | 0.44 | 96 | 1005.8 |
| 20260510034845 | 47 | 184 | 0.0 | 1.7 | 0.00 | 0.44 | 0.44 | 96 | 1005.9 |
| 20260510034346 | 47 | 184 | 0.0 | 1.7 | 0.00 | 0.44 | 0.44 | 96 | 1005.9 |
| 20260510033906 | 47 | 184 | 0.9 | 1.7 | 0.00 | 0.44 | 0.44 | 95 | 1005.8 |
| 20260510033347 | 47 | 184 | 0.0 | 1.7 | 0.00 | 0.44 | 0.44 | 95 | 1005.9 |
| 20260510032836 | 47 | 184 | 0.0 | 1.7 | 0.00 | 0.44 | 0.44 | 95 | 1005.8 |
| 20260510032352 | 47 | 184 | 0.0 | 1.7 | 0.00 | 0.44 | 0.44 | 95 | 1005.7 |
| 20260510031836 | 47 | 184 | 0.0 | 0.9 | 0.00 | 0.44 | 0.44 | 95 | 1005.6 |
| 20260510031344 | 47 | 184 | 0.0 | 2.6 | 0.00 | 0.44 | 0.44 | 95 | 1005.7 |
| 20260510030854 | 47 | 184 | 0.0 | 2.6 | 0.00 | 0.44 | 0.44 | 95 | 1005.7 |
| 20260510030357 | 47 | 184 | 0.0 | 3.5 | 0.00 | 0.44 | 0.44 | 95 | 1005.6 |
| 20260510025846 | 47 | 184 | 0.9 | 3.5 | 0.00 | 0.44 | 0.44 | 95 | 1005.6 |
| 20260510025342 | 47 | 201 | 0.0 | 1.7 | 0.00 | 0.44 | 0.44 | 95 | 1005.5 |
| 20260510024842 | 47 | 202 | 0.0 | 1.7 | 0.00 | 0.44 | 0.44 | 95 | 1005.5 |
| 20260510024345 | 47 | 223 | 0.9 | 1.7 | 0.00 | 0.44 | 0.44 | 95 | 1005.6 |
| 20260510023833 | 47 | 139 | 0.0 | 2.6 | 0.00 | 0.44 | 0.44 | 95 | 1005.3 |
| 20260510023332 | 47 | 139 | 0.9 | 2.6 | 0.00 | 0.44 | 0.44 | 95 | 1005.1 |
| 20260510022836 | 47 | 198 | 0.0 | 2.6 | 0.00 | 0.44 | 0.44 | 95 | 1005.0 |
| 20260510022332 | 47 | 198 | 0.0 | 3.5 | 0.00 | 0.44 | 0.44 | 95 | 1005.1 |
| 20260510021832 | 47 | 182 | 0.9 | 3.5 | 0.00 | 0.44 | 0.44 | 95 | 1005.2 |
| 20260510021332 | 47 | 184 | 0.0 | 4.3 | 0.00 | 0.44 | 0.44 | 95 | 1005.2 |
| 20260510020854 | 47 | 184 | 0.9 | 4.3 | 0.00 | 0.44 | 0.44 | 94 | 1005.1 |
| 20260510020356 | 48 | 144 | 1.7 | 6.1 | 0.00 | 0.44 | 0.44 | 94 | 1005.1 |
| 20260510015847 | 48 | 188 | 0.9 | 6.1 | 0.00 | 0.44 | 0.44 | 94 | 1005.2 |
| 20260510015343 | 48 | 231 | 0.0 | 2.6 | 0.00 | 0.44 | 0.44 | 94 | 1005.2 |
| 20260510014840 | 48 | 226 | 0.0 | 2.6 | 0.00 | 0.44 | 0.44 | 94 | 1005.3 |
| 20260510014330 | 48 | 255 | 0.9 | 2.6 | 0.00 | 0.44 | 0.44 | 94 | 1005.2 |
| 20260510013848 | 48 | 255 | 0.9 | 4.3 | 0.00 | 0.44 | 0.44 | 94 | 1005.2 |
| 20260510013332 | 49 | 175 | 0.0 | 4.3 | 0.01 | 0.44 | 0.44 | 94 | 1005.1 |
| 20260510012851 | 49 | 293 | 0.9 | 2.6 | 0.02 | 0.44 | 0.44 | 94 | 1004.9 |
| 20260510012334 | 49 | 178 | 0.9 | 3.5 | 0.03 | 0.44 | 0.44 | 94 | 1004.9 |
| 20260510011837 | 49 | 178 | 0.9 | 5.2 | 0.05 | 0.44 | 0.44 | 94 | 1004.8 |
| 20260510011340 | 49 | 124 | 0.9 | 6.1 | 0.07 | 0.44 | 0.44 | 94 | 1004.6 |
| 20260510010907 | 49 | 190 | 3.5 | 7.8 | 0.09 | 0.44 | 0.44 | 94 | 1004.4 |
| 20260510010409 | 49 | 227 | 1.7 | 7.8 | 0.10 | 0.44 | 0.44 | 94 | 1004.5 |
| 20260510005852 | 49 | 66 | 3.5 | 7.8 | 0.14 | 0.44 | 0.44 | 94 | 1004.4 |
| 20260510005333 | 49 | 223 | 2.6 | 12.2 | 0.16 | 0.44 | 0.44 | 94 | 1004.5 |
| 20260510004841 | 49 | 180 | 2.6 | 12.2 | 0.20 | 0.44 | 0.44 | 94 | 1004.4 |
| 20260510004347 | 49 | 200 | 3.5 | 6.1 | 0.23 | 0.44 | 0.44 | 94 | 1004.3 |
| 20260510003839 | 49 | 164 | 2.6 | 4.3 | 0.24 | 0.44 | 0.44 | 94 | 1004.4 |
| 20260510003334 | 49 | 171 | 1.7 | 4.3 | 0.25 | 0.43 | 0.43 | 93 | 1004.6 |
| 20260510002853 | 49 | 161 | 1.7 | 5.2 | 0.26 | 0.42 | 0.42 | 93 | 1005.1 |
| 20260510002401 | 49 | 148 | 1.7 | 8.7 | 0.28 | 0.41 | 0.41 | 93 | 1004.9 |
| 20260510001834 | 49 | 242 | 2.6 | 13.0 | 0.30 | 0.39 | 0.39 | 93 | 1005.4 |
| 20260510001334 | 49 | 158 | 2.6 | 13.0 | 0.34 | 0.36 | 0.36 | 93 | 1005.7 |
| 20260510000852 | 49 | 197 | 3.5 | 9.6 | 0.35 | 0.35 | 0.35 | 93 | 1005.7 |
| 20260510000353 | 49 | 129 | 1.7 | 8.7 | 0.34 | 0.34 | 0.34 | 92 | 1005.6 |
| 20260509235830 | 49 | 209 | 2.6 | 5.2 | 0.30 | 0.30 | 0.30 | 92 | 1005.7 |
| 20260509235351 | 49 | 154 | 1.7 | 5.2 | 0.28 | 0.28 | 0.28 | 92 | 1005.6 |
| 20260509234846 | 49 | 180 | 1.7 | 6.1 | 0.24 | 0.24 | 0.24 | 91 | 1005.5 |
| 20260509234344 | 49 | 250 | 1.7 | 6.1 | 0.21 | 0.21 | 0.21 | 90 | 1005.3 |
| 20260509233842 | 49 | 259 | 2.6 | 7.0 | 0.20 | 0.20 | 0.20 | 89 | 1005.0 |
| 20260509233358 | 50 | 11 | 2.6 | 10.4 | 0.18 | 0.18 | 0.18 | 88 | 1004.8 |
| 20260509232918 | 50 | 148 | 2.6 | 10.4 | 0.15 | 0.15 | 0.15 | 86 | 1004.4 |
| 20260509232340 | 52 | 233 | 5.2 | 10.4 | 0.12 | 0.12 | 0.12 | 83 | 1004.5 |
| 20260509231836 | 54 | 91 | 4.3 | 12.2 | 0.09 | 0.09 | 0.09 | 78 | 1004.7 |
| 20260509231340 | 58 | 84 | 3.5 | 20.9 | 0.00 | 0.00 | 0.00 | 70 | 1004.6 |
| 20260509230841 | 60 | 227 | 7.0 | 20.9 | 0.00 | 0.00 | 0.00 | 67 | 1003.7 |
| 20260509230332 | 60 | 236 | 3.5 | 9.6 | 0.00 | 0.00 | 0.00 | 67 | 1002.6 |
| 20260509225842 | 60 | 249 | 3.5 | 8.7 | 0.00 | 0.00 | 0.00 | 66 | 1002.6 |
| 20260509225345 | 60 | 254 | 2.6 | 10.4 | 0.00 | 0.00 | 0.00 | 65 | 1002.8 |
| 20260509224831 | 61 | 249 | 3.5 | 10.4 | 0.00 | 0.00 | 0.00 | 65 | 1003.0 |
| 20260509224359 | 61 | 238 | 3.5 | 7.8 | 0.00 | 0.00 | 0.00 | 65 | 1002.8 |
| 20260509223838 | 61 | 49 | 2.6 | 6.1 | 0.00 | 0.00 | 0.00 | 66 | 1002.8 |
| 20260509223339 | 61 | 252 | 2.6 | 7.8 | 0.00 | 0.00 | 0.00 | 65 | 1002.7 |
| 20260509222845 | 61 | 251 | 4.3 | 7.8 | 0.00 | 0.00 | 0.00 | 65 | 1002.4 |
| 20260509222409 | 61 | 234 | 1.7 | 7.0 | 0.00 | 0.00 | 0.00 | 65 | 1002.6 |
| 20260509221842 | 61 | 182 | 1.7 | 7.8 | 0.00 | 0.00 | 0.00 | 64 | 1002.6 |
| 20260509221402 | 61 | 206 | 1.7 | 7.8 | 0.00 | 0.00 | 0.00 | 64 | 1002.6 |
| 20260509220836 | 61 | 207 | 1.7 | 8.7 | 0.00 | 0.00 | 0.00 | 63 | 1002.5 |
| 20260509220343 | 61 | 88 | 3.5 | 9.6 | 0.00 | 0.00 | 0.00 | 62 | 1002.6 |
| 20260509215832 | 62 | 210 | 3.5 | 9.6 | 0.00 | 0.00 | 0.00 | 62 | 1002.7 |
| 20260509215344 | 62 | 244 | 3.5 | 8.7 | 0.00 | 0.00 | 0.00 | 62 | 1002.8 |
| 20260509214853 | 62 | 73 | 2.6 | 4.3 | 0.00 | 0.00 | 0.00 | 64 | 1002.7 |
| 20260509214347 | 62 | 205 | 0.9 | 9.6 | 0.00 | 0.00 | 0.00 | 64 | 1002.7 |
| 20260509213842 | 62 | 172 | 3.5 | 9.6 | 0.00 | 0.00 | 0.00 | 63 | 1002.8 |
| 20260509213347 | 62 | 234 | 4.3 | 8.7 | 0.00 | 0.00 | 0.00 | 60 | 1002.9 |
| 20260509212844 | 62 | 225 | 4.3 | 8.7 | 0.00 | 0.00 | 0.00 | 59 | 1002.9 |
| 20260509212406 | 63 | 242 | 3.5 | 8.7 | 0.00 | 0.00 | 0.00 | 61 | 1003.0 |
| 20260509211846 | 63 | 221 | 3.5 | 8.7 | 0.00 | 0.00 | 0.00 | 63 | 1002.8 |
| 20260509211340 | 63 | 283 | 2.6 | 9.6 | 0.00 | 0.00 | 0.00 | 62 | 1002.8 |
| 20260509210849 | 64 | 120 | 2.6 | 9.6 | 0.00 | 0.00 | 0.00 | 60 | 1002.8 |
| 20260509210357 | 64 | 97 | 3.5 | 9.6 | 0.00 | 0.00 | 0.00 | 62 | 1002.7 |
| 20260509205855 | 63 | 125 | 3.5 | 10.4 | 0.00 | 0.00 | 0.00 | 60 | 1002.7 |
| 20260509205336 | 63 | 219 | 4.3 | 11.3 | 0.00 | 0.00 | 0.00 | 62 | 1002.8 |
| 20260509204839 | 62 | 194 | 2.6 | 7.8 | 0.00 | 0.00 | 0.00 | 63 | 1002.8 |
| 20260509204359 | 62 | 221 | 2.6 | 6.1 | 0.00 | 0.00 | 0.00 | 60 | 1002.9 |
| 20260509203901 | 62 | 192 | 1.7 | 7.0 | 0.00 | 0.00 | 0.00 | 60 | 1003.0 |
| 20260509203332 | 63 | 258 | 0.9 | 7.8 | 0.00 | 0.00 | 0.00 | 61 | 1003.1 |
| 20260509202857 | 62 | 336 | 1.7 | 6.1 | 0.00 | 0.00 | 0.00 | 62 | 1003.1 |
| 20260509202337 | 62 | 286 | 2.6 | 8.7 | 0.00 | 0.00 | 0.00 | 62 | 1003.2 |
| 20260509201901 | 62 | 270 | 3.5 | 8.7 | 0.00 | 0.00 | 0.00 | 61 | 1003.2 |
| 20260509201343 | 62 | 156 | 2.6 | 7.8 | 0.00 | 0.00 | 0.00 | 61 | 1003.2 |
| 20260509200843 | 63 | 223 | 2.6 | 12.2 | 0.00 | 0.00 | 0.00 | 60 | 1003.3 |
| 20260509200350 | 65 | 251 | 4.3 | 12.2 | 0.00 | 0.00 | 0.00 | 59 | 1003.3 |